Погода в Владимировке

Россия / Астраханская область     47°10′39″N   47°01′58″E
темп.,
°C
ветер,
м/с
пор.,
м/с
влажн.,
%
обл.,
%
осадки,
мм/ч
давл.,
гПа
погр.,
м
12 апреля, пн
пн1201:00+15в8163929 0.0 1021344
04:00+14в8154516 0.0 1021306
07:00+13в815565 0.0 1022285
10:00+17вюв914449 0.0 1023518
13:00+20вюв10133130 0.0 10241372
16:00+20юв101329100 0.0 10241430
19:00+18вюв61138100 0.0 1024233
22:00+15в5124152 0.0 1025190
13 апреля, вт
вт1301:00+14вюв61335100 0.0 1025244
04:00+13в71435100 0.0 1025264
07:00+12в61344100 0.0 1026241
10:00+16вюв71135100 0.0 1026452
13:00+20вюв10132391 0.0 10251260
16:00+20вюв9122259 0.0 10241412
19:00+17вюв61133100 0.0 1023257
22:00+14вюв473714 0.0 102399
14 апреля, ср
ср1401:00+13всв4537100 0.0 102257
04:00+12в61443100 0.0 1020223
07:00+12в71443100 0.0 1019242
10:00+16вюв81239100 0.0 1019397
13:00+20вюв81029100 0.0 10181142
16:00+21вюв792525 0.0 10171487
19:00+18вюв5936100 0.0 1016169
22:00+16ююв463726 0.0 101785
15 апреля, чт
чт1501:00+15с4440100 0.0 101537
04:00+13с2249100 0.0 101517
07:00+13юв265187 0.0 1015155
10:00+17с4444100 0.0 1013226
13:00+19св5733100 0.0 1013961
16:00+19всв5736100 0.0 1012443
19:00+17с464194 0.0 101285
22:00+15с454568 0.0 101251
16 апреля, пт
пт1601:00+14сз574921 0.0 101279
04:00+12сз58595 0.0 101297
07:00+11сз58695 0.0 1013131
10:00+17ссз56415 0.0 1013397
13:00+21сз44301 0.0 10131311
16:00+22сз442888 0.0 10132144
19:00+20сз343699 0.0 101362
22:00+16сз46555 0.0 1014100